GALAXY 33

导读 | 星芒AI

GALAXY 33 是一颗由美国Loral Space & Communications公司制造的通信卫星,于2000年11月由SpaceX的猎鹰九号火箭发射升空。该卫星由Intelsat公司运营,主要用于提供跨大西洋的固定卫星服务,支持电视广播、企业网络和互联网接入。GALAXY 33 与GALAXY 13组成星座,共同覆盖美洲和欧洲地区。卫星搭载C波段和Ku波段转发器,具有高容量和广泛覆盖能力,为多个行业提供关键通信支持。

基本信息
目录编号:
54026
目录名称:
GALAXY 33
国际标识:
2022-128A
轨道中心:
EARTH
卫星名称:
GALAXY 33
卫星全名:
--
卫星状态:
在轨 (已飞行1162 天)
发射日期:
2022-10-08 UTC
国别 :
美国 (US)
星等 :
--
轨道信息
数据来源 国际轨道数据 AOE轨道数据
星历时间 2025-12-12T21:45:29+0800
20小时前
查看轨道信息
2025-12-11T16:00:00+0800
2天前
查看轨道信息
半长轴 42164.784km 42164.616km
偏心率 0.0001977 0.0001918
轨道倾角 0.014° 0.008°
近地点辐角 278.086° 282.604°
升交点赤经 337.915° 322.954°
平近点角 258.888° 181.745°
近地点 35778.313km 35778.393km
远地点 35794.985km 35794.569km
周期 1436.100分钟 1436.091分钟
每日圈数 1.002716 1.002722
详细信息
使用方式:
暂无
2D轨道图
3D轨道图
轨道高度分析图
轨道倾角分析图
轨道综合分析图
查看轨道综合分析图